Location: Stuart
(27.1975°N, 80.2528°W)
Time: 08:38:53
(UTC-04:00)

N. Korean satellite - Pass Details

Date: 04 April 2020
Orbit: 455 x 504 km, 97.2° (Epoch: 01 June)

Event Time Altitude Azimuth Distance (km) Brightness Sun altitude
Rises 06:16:26 0° 30° (NNE) 2,472 10.8 -12.1°
Reaches altitude 10° 06:18:52 10° 47° (NE) 1,593 10.2 -11.6°
Maximum altitude 06:21:27 20° 97° (E) 1,105 9.4 -11.0°
Drops below altitude 10° 06:24:02 10° 146° (SSE) 1,588 9.5 -10.4°
Sets 06:26:26 0° 164° (SSE) 2,460 10.2 -9.9°
